Time,TemperatureF,DewpointF,PressureIn,WindDirection,WindDirectionDegrees,WindSpeedMPH,WindSpeedGustMPH,Humidity,HourlyPrecipIn,Conditions,Clouds,dailyrainin,SoftwareType,DateUTC
2013-03-12 00:02:00,27.0,23.0,-100.00,NW,315,15.0,18.0,87,0.00,,,0.00,,2013-03-12 05:02:00,
2013-03-12 00:12:00,27.0,23.0,-100.00,NW,320,14.0,18.0,88,0.00,,,0.00,,2013-03-12 05:12:00,
2013-03-12 00:22:00,27.0,25.0,-100.00,NW,320,13.0,19.0,89,0.00,,,0.00,,2013-03-12 05:22:00,
2013-03-12 00:32:00,27.0,25.0,-100.00,NW,325,14.0,19.0,89,0.00,,,0.00,,2013-03-12 05:32:00,
2013-03-12 00:42:00,28.0,25.0,-100.00,NNW,340,17.0,22.0,88,0.00,,,0.00,,2013-03-12 05:42:00,
2013-03-12 00:52:00,28.0,25.0,-100.00,NNW,330,14.0,18.0,88,0.00,,,0.00,,2013-03-12 05:52:00,
2013-03-12 01:02:00,28.0,25.0,-100.00,NW,320,11.0,16.0,89,0.00,,,0.00,,2013-03-12 06:02:00,
2013-03-12 01:12:00,28.0,25.0,-100.00,NW,325,12.0,15.0,89,0.00,,,0.00,,2013-03-12 06:12:00,
2013-03-12 01:22:00,28.0,27.0,-100.00,NW,320,11.0,15.0,91,0.00,,,0.00,,2013-03-12 06:22:00,
2013-03-12 01:32:00,28.0,27.0,-100.00,NW,315,13.0,17.0,92,0.00,,,0.00,,2013-03-12 06:32:00,
2013-03-12 01:42:00,28.0,27.0,-100.00,NW,320,11.0,17.0,92,0.00,,,0.00,,2013-03-12 06:42:00,
2013-03-12 01:52:00,28.0,27.0,-100.00,NW,315,12.0,15.0,92,0.00,,,0.00,,2013-03-12 06:52:00,
2013-03-12 02:02:00,28.0,27.0,-100.00,NW,310,12.0,15.0,93,0.00,,,0.00,,2013-03-12 07:02:00,
2013-03-12 02:12:00,28.0,27.0,-100.00,NW,315,9.0,15.0,93,0.00,,,0.00,,2013-03-12 07:12:00,
2013-03-12 02:22:00,28.0,27.0,-100.00,NW,310,11.0,13.0,93,0.00,,,0.00,,2013-03-12 07:22:00,
2013-03-12 02:32:00,28.0,27.0,-100.00,NW,320,10.0,15.0,93,0.00,,,0.00,,2013-03-12 07:32:00,
2013-03-12 02:42:00,28.0,27.0,-100.00,NW,310,12.0,15.0,92,0.00,,,0.00,,2013-03-12 07:42:00,
2013-03-12 02:52:00,27.0,25.0,-100.00,WNW,300,12.0,16.0,93,0.00,,,0.00,,2013-03-12 07:52:00,
2013-03-12 03:02:00,27.0,25.0,-100.00,WNW,300,11.0,14.0,95,0.00,,,0.00,,2013-03-12 08:02:00,
2013-03-12 03:12:00,27.0,27.0,-100.00,WNW,295,13.0,16.0,95,0.00,,,0.00,,2013-03-12 08:12:00,
2013-03-12 03:22:00,26.0,25.0,-100.00,WNW,290,12.0,17.0,96,0.00,,,0.00,,2013-03-12 08:22:00,
2013-03-12 03:32:00,26.0,25.0,-100.00,WNW,290,14.0,17.0,97,0.00,,,0.00,,2013-03-12 08:32:00,
2013-03-12 03:42:00,26.0,25.0,-100.00,WNW,290,11.0,17.0,97,0.00,,,0.00,,2013-03-12 08:42:00,
2013-03-12 03:52:00,26.0,25.0,-100.00,WNW,290,13.0,17.0,98,0.00,,,0.00,,2013-03-12 08:52:00,
2013-03-12 04:03:00,26.0,25.0,-100.00,WNW,295,13.0,17.0,98,0.00,,,0.00,,2013-03-12 09:03:00,
2013-03-12 04:52:00,26.0,25.0,-100.00,West,280,12.0,17.0,99,0.00,,,0.00,,2013-03-12 09:52:00,
2013-03-12 05:02:00,25.0,25.0,-100.00,WNW,285,12.0,17.0,99,0.00,,,0.00,,2013-03-12 10:02:00,
2013-03-12 05:12:00,25.0,25.0,-100.00,WNW,285,12.0,17.0,99,0.00,,,0.00,,2013-03-12 10:12:00,
2013-03-12 05:22:00,25.0,25.0,-100.00,WNW,285,12.0,16.0,99,0.00,,,0.00,,2013-03-12 10:22:00,
2013-03-12 05:32:00,25.0,25.0,-100.00,WNW,290,13.0,16.0,99,0.00,,,0.00,,2013-03-12 10:32:00,
2013-03-12 05:42:00,26.0,25.0,-100.00,WNW,295,17.0,22.0,99,0.00,,,0.00,,2013-03-12 10:42:00,
2013-03-12 05:52:00,26.0,25.0,-100.00,WNW,295,14.0,19.0,99,0.00,,,0.00,,2013-03-12 10:52:00,
2013-03-12 06:22:00,27.0,27.0,-100.00,WNW,300,19.0,22.0,99,0.00,,,0.00,,2013-03-12 11:22:00,
2013-03-12 06:32:00,27.0,27.0,-100.00,WNW,300,17.0,24.0,99,0.00,,,0.00,,2013-03-12 11:32:00,
2013-03-12 06:42:00,27.0,27.0,-100.00,NW,305,17.0,24.0,99,0.00,,,0.00,,2013-03-12 11:42:00,
2013-03-12 06:52:00,27.0,27.0,-100.00,NW,305,18.0,22.0,99,0.00,,,0.00,,2013-03-12 11:52:00,
2013-03-12 07:02:00,27.0,27.0,-100.00,NW,310,17.0,21.0,99,0.00,,,0.00,,2013-03-12 12:02:00,
2013-03-12 07:12:00,27.0,27.0,-100.00,NW,310,17.0,22.0,99,0.00,,,0.00,,2013-03-12 12:12:00,
2013-03-12 07:22:00,27.0,27.0,-100.00,NW,315,17.0,24.0,99,0.01,,,0.00,,2013-03-12 12:22:00,
2013-03-12 07:32:00,27.0,27.0,-100.00,NW,315,19.0,26.0,99,0.00,,,0.00,,2013-03-12 12:32:00,
2013-03-12 07:42:00,27.0,27.0,-100.00,NW,310,19.0,26.0,99,0.00,,,0.00,,2013-03-12 12:42:00,
2013-03-12 07:52:00,27.0,27.0,-100.00,NW,315,19.0,24.0,99,0.00,,,0.00,,2013-03-12 12:52:00,
2013-03-12 08:02:00,27.0,27.0,-100.00,NW,310,19.0,26.0,99,0.00,,,0.00,,2013-03-12 13:02:00,
2013-03-12 08:22:00,27.0,27.0,-100.00,NW,320,19.0,26.0,99,0.00,,,0.00,,2013-03-12 13:22:00,
2013-03-12 08:32:00,27.0,27.0,-100.00,NW,315,18.0,26.0,99,0.00,,,0.00,,2013-03-12 13:32:00,
2013-03-12 08:42:00,27.0,27.0,-100.00,NW,320,18.0,23.0,99,0.00,,,0.00,,2013-03-12 13:42:00,
2013-03-12 08:52:00,27.0,27.0,-100.00,NW,325,14.0,21.0,99,0.00,,,0.00,,2013-03-12 13:52:00,
2013-03-12 09:02:00,27.0,27.0,-100.00,NNW,335,16.0,22.0,99,0.00,,,0.00,,2013-03-12 14:02:00,
2013-03-12 09:12:00,25.0,25.0,-100.00,North,355,19.0,26.0,99,0.00,,,0.00,,2013-03-12 14:12:00,
2013-03-12 09:52:00,23.0,23.0,-100.00,North,355,20.0,27.0,99,0.00,,,0.01,,2013-03-12 14:52:00,
2013-03-12 10:32:00,22.0,21.0,-100.00,NNW,345,21.0,27.0,99,0.00,,,0.01,,2013-03-12 15:32:00,
2013-03-12 10:52:00,22.0,21.0,-100.00,NNW,345,21.0,25.0,99,0.00,,,0.01,,2013-03-12 15:52:00,
2013-03-12 11:02:00,22.0,21.0,-100.00,North,355,21.0,27.0,99,0.00,,,0.01,,2013-03-12 16:02:00,
2013-03-12 11:12:00,22.0,21.0,-100.00,NNW,345,21.0,27.0,99,0.00,,,0.01,,2013-03-12 16:12:00,
2013-03-12 11:22:00,21.0,21.0,-100.00,NNW,345,24.0,29.0,99,0.00,,,0.01,,2013-03-12 16:22:00,
2013-03-12 11:33:00,22.0,21.0,-100.00,North,355,22.0,30.0,99,0.00,,,0.01,,2013-03-12 16:33:00,
2013-03-12 11:52:00,22.0,21.0,-100.00,NNW,345,24.0,27.0,99,0.00,,,0.01,,2013-03-12 16:52:00,
2013-03-12 12:02:00,22.0,21.0,-100.00,North,350,24.0,29.0,99,0.00,,,0.01,,2013-03-12 17:02:00,
2013-03-12 12:22:00,22.0,21.0,-100.00,NNW,345,24.0,29.0,97,0.00,,,0.01,,2013-03-12 17:22:00,
2013-03-12 12:33:00,23.0,21.0,-100.00,NNW,345,21.0,29.0,97,0.00,,,0.01,,2013-03-12 17:33:00,
2013-03-12 12:43:00,23.0,23.0,-100.00,North,355,24.0,32.0,96,0.00,,,0.01,,2013-03-12 17:43:00,
2013-03-12 12:53:00,23.0,23.0,-100.00,North,350,24.0,29.0,96,0.00,,,0.01,,2013-03-12 17:53:00,
2013-03-12 13:02:00,23.0,21.0,-100.00,NNW,345,24.0,30.0,96,0.00,,,0.01,,2013-03-12 18:02:00,
2013-03-12 13:12:00,24.0,23.0,-100.00,NNW,345,22.0,29.0,96,0.00,,,0.01,,2013-03-12 18:12:00,
2013-03-12 13:22:00,23.0,23.0,-100.00,NNW,335,23.0,30.0,96,0.00,,,0.01,,2013-03-12 18:22:00,
2013-03-12 13:33:00,24.0,23.0,-100.00,North,350,23.0,31.0,94,0.00,,,0.01,,2013-03-12 18:33:00,
2013-03-12 13:42:00,24.0,23.0,-100.00,NNW,335,23.0,29.0,95,0.00,,,0.01,,2013-03-12 18:42:00,
2013-03-12 13:53:00,23.0,23.0,-100.00,NNW,345,24.0,30.0,96,0.00,,,0.01,,2013-03-12 18:53:00,
2013-03-12 14:03:00,23.0,21.0,-100.00,NNW,345,26.0,33.0,94,0.00,,,0.01,,2013-03-12 19:03:00,
2013-03-12 14:13:00,23.0,21.0,-100.00,NNW,345,25.0,34.0,93,0.00,,,0.01,,2013-03-12 19:13:00,
2013-03-12 14:22:00,24.0,21.0,-100.00,NNW,335,28.0,34.0,93,0.00,,,0.01,,2013-03-12 19:22:00,
2013-03-12 14:33:00,24.0,23.0,-100.00,NNW,345,24.0,32.0,92,0.00,,,0.01,,2013-03-12 19:33:00,
2013-03-12 14:43:00,24.0,21.0,-100.00,NNW,340,24.0,32.0,90,0.00,,,0.01,,2013-03-12 19:43:00,
2013-03-12 14:52:00,24.0,21.0,-100.00,NNW,340,23.0,33.0,90,0.00,,,0.01,,2013-03-12 19:52:00,
2013-03-12 15:02:00,24.0,21.0,-100.00,NNW,340,27.0,34.0,89,0.00,,,0.01,,2013-03-12 20:02:00,
2013-03-12 15:22:00,23.0,21.0,-100.00,NNW,335,29.0,34.0,89,0.00,,,0.01,,2013-03-12 20:22:00,
2013-03-12 15:32:00,24.0,21.0,-100.00,NNW,340,26.0,32.0,90,0.00,,,0.01,,2013-03-12 20:32:00,
2013-03-12 15:42:00,24.0,21.0,-100.00,NNW,335,28.0,35.0,91,0.00,,,0.01,,2013-03-12 20:42:00,
2013-03-12 15:52:00,24.0,21.0,-100.00,NNW,335,23.0,35.0,91,0.00,,,0.01,,2013-03-12 20:52:00,
2013-03-12 16:02:00,23.0,21.0,-100.00,NNW,345,24.0,31.0,92,0.00,,,0.01,,2013-03-12 21:02:00,
2013-03-12 16:12:00,24.0,23.0,-100.00,NNW,335,22.0,30.0,95,0.00,,,0.01,,2013-03-12 21:12:00,
2013-03-12 16:22:00,23.0,21.0,-100.00,NNW,335,25.0,30.0,91,0.00,,,0.01,,2013-03-12 21:22:00,
2013-03-12 16:32:00,23.0,21.0,-100.00,NNW,340,25.0,32.0,90,0.00,,,0.01,,2013-03-12 21:32:00,
2013-03-12 16:42:00,24.0,21.0,-100.00,NNW,335,24.0,29.0,92,0.00,,,0.01,,2013-03-12 21:42:00,
2013-03-12 16:52:00,24.0,21.0,-100.00,NNW,335,23.0,32.0,89,0.00,,,0.01,,2013-03-12 21:52:00,
2013-03-12 17:02:00,24.0,19.0,-100.00,NNW,340,26.0,31.0,86,0.00,,,0.01,,2013-03-12 22:02:00,
2013-03-12 17:12:00,24.0,21.0,-100.00,NW,325,22.0,31.0,90,0.00,,,0.01,,2013-03-12 22:12:00,
2013-03-12 17:22:00,24.0,21.0,-100.00,NNW,335,21.0,31.0,90,0.00,,,0.01,,2013-03-12 22:22:00,
2013-03-12 17:33:00,24.0,21.0,-100.00,NNW,330,26.0,33.0,88,0.00,,,0.01,,2013-03-12 22:33:00,
2013-03-12 17:42:00,24.0,21.0,-100.00,NNW,330,26.0,34.0,87,0.00,,,0.01,,2013-03-12 22:42:00,
2013-03-12 17:52:00,24.0,21.0,-100.00,NNW,335,21.0,37.0,90,0.00,,,0.01,,2013-03-12 22:52:00,
2013-03-12 18:02:00,24.0,21.0,-100.00,NNW,335,28.0,32.0,90,0.00,,,0.01,,2013-03-12 23:02:00,
2013-03-12 18:12:00,24.0,21.0,-100.00,NNW,335,27.0,32.0,88,0.00,,,0.01,,2013-03-12 23:12:00,
2013-03-12 18:22:00,24.0,21.0,-100.00,NNW,335,27.0,33.0,87,0.00,,,0.01,,2013-03-12 23:22:00,
2013-03-12 18:34:00,23.0,19.0,-100.00,NNW,330,27.0,34.0,87,0.00,,,0.01,,2013-03-12 23:34:00,
2013-03-12 18:43:00,23.0,19.0,-100.00,NW,325,24.0,31.0,87,0.00,,,0.01,,2013-03-12 23:43:00,
2013-03-12 18:52:00,23.0,19.0,-100.00,NNW,335,24.0,34.0,85,0.00,,,0.01,,2013-03-12 23:52:00,
2013-03-12 19:02:00,23.0,19.0,-100.00,NNW,335,21.0,29.0,85,0.00,,,0.01,,2013-03-13 00:02:00,
2013-03-12 19:12:00,23.0,19.0,-100.00,NNW,335,24.0,29.0,84,0.00,,,0.01,,2013-03-13 00:12:00,
2013-03-12 19:22:00,23.0,19.0,-100.00,NNW,340,19.0,27.0,85,0.00,,,0.01,,2013-03-13 00:22:00,
2013-03-12 19:33:00,23.0,19.0,-100.00,NNW,335,23.0,30.0,84,0.00,,,0.01,,2013-03-13 00:33:00,
2013-03-12 19:42:00,23.0,19.0,-100.00,NNW,340,24.0,32.0,83,0.00,,,0.01,,2013-03-13 00:42:00,
2013-03-12 19:52:00,23.0,19.0,-100.00,NNW,335,20.0,27.0,84,0.00,,,0.01,,2013-03-13 00:52:00,
2013-03-12 20:02:00,23.0,19.0,-100.00,NNW,335,24.0,29.0,84,0.00,,,0.01,,2013-03-13 01:02:00,
2013-03-12 20:12:00,22.0,18.0,-100.00,NNW,345,21.0,32.0,83,0.00,,,0.01,,2013-03-13 01:12:00,
2013-03-12 20:22:00,22.0,18.0,-100.00,NNW,335,22.0,27.0,84,0.00,,,0.01,,2013-03-13 01:22:00,
2013-03-12 20:32:00,22.0,18.0,-100.00,NNW,340,22.0,31.0,83,0.00,,,0.01,,2013-03-13 01:32:00,
2013-03-12 20:42:00,22.0,18.0,-100.00,NNW,340,20.0,26.0,85,0.00,,,0.01,,2013-03-13 01:42:00,
2013-03-12 20:52:00,22.0,18.0,-100.00,NNW,340,24.0,32.0,84,0.00,,,0.01,,2013-03-13 01:52:00,
2013-03-12 21:02:00,22.0,19.0,-100.00,NNW,345,21.0,30.0,86,0.00,,,0.01,,2013-03-13 02:02:00,
2013-03-12 21:12:00,22.0,19.0,-100.00,NNW,340,23.0,30.0,87,0.00,,,0.01,,2013-03-13 02:12:00,
2013-03-12 21:22:00,22.0,19.0,-100.00,North,350,24.0,32.0,89,0.00,,,0.01,,2013-03-13 02:22:00,
2013-03-12 21:32:00,22.0,19.0,-100.00,NNW,345,25.0,32.0,90,0.00,,,0.01,,2013-03-13 02:32:00,
2013-03-12 21:42:00,22.0,19.0,-100.00,NNW,345,24.0,31.0,91,0.00,,,0.01,,2013-03-13 02:42:00,
2013-03-12 21:52:00,22.0,19.0,-100.00,North,350,29.0,35.0,90,0.00,,,0.01,,2013-03-13 02:52:00,
2013-03-12 22:02:00,22.0,19.0,-100.00,North,350,29.0,35.0,89,0.00,,,0.01,,2013-03-13 03:02:00,
2013-03-12 22:12:00,21.0,19.0,-100.00,NNW,345,27.0,34.0,91,0.00,,,0.01,,2013-03-13 03:12:00,
2013-03-12 22:22:00,21.0,19.0,-100.00,NNW,345,25.0,34.0,91,0.00,,,0.01,,2013-03-13 03:22:00,
2013-03-12 22:32:00,21.0,19.0,-100.00,North,350,24.0,35.0,93,0.00,,,0.01,,2013-03-13 03:32:00,
2013-03-12 22:42:00,21.0,19.0,-100.00,North,355,21.0,29.0,93,0.00,,,0.01,,2013-03-13 03:42:00,
2013-03-12 22:52:00,21.0,19.0,-100.00,North,350,23.0,34.0,91,0.00,,,0.01,,2013-03-13 03:52:00,
2013-03-12 23:02:00,21.0,19.0,-100.00,NNW,345,24.0,29.0,91,0.00,,,0.01,,2013-03-13 04:02:00,
2013-03-12 23:13:00,21.0,19.0,-100.00,North,355,26.0,30.0,91,0.00,,,0.01,,2013-03-13 04:13:00,
2013-03-12 23:22:00,20.0,19.0,-100.00,North,350,25.0,30.0,93,0.00,,,0.01,,2013-03-13 04:22:00,
2013-03-12 23:32:00,20.0,19.0,-100.00,North,350,20.0,30.0,93,0.00,,,0.01,,2013-03-13 04:32:00,
2013-03-12 23:42:00,20.0,19.0,-100.00,North,350,21.0,29.0,93,0.00,,,0.01,,2013-03-13 04:42:00,
2013-03-12 23:52:00,20.0,18.0,-100.00,North,355,22.0,29.0,93,0.00,,,0.01,,2013-03-13 04:52:00,